This demonstration page uses our WeatherBlox Daily Observations layout. Learn more.

Left ArrowRight Arrow

41.12389, -100.76542

Hourly Observations for September 29, 2022

Temp ( °F °C ) Dew Point ( °F °C ) Humidity (%) Winds ( mph kmh ) Pressure ( in mb ) Visibility ( mi km ) Precip ( " mm )
12:53 am 00:53 Clear 62 16.7 43 6.1 50 50 SSE 14 22 30.20 1023 10 16 0.00 0.00
1:53 am 01:53 Clear 60 15.6 43 6.1 53 53 SSE 12 19 30.21 1023 10 16 0.00 0.00
2:53 am 02:53 Clear 59 15 42 5.6 53 53 SE 10 17 30.20 1023 10 16 0.00 0.00
3:53 am 03:53 Clear 57 13.9 42 5.6 57 57 SE 10 17 30.20 1023 10 16 0.00 0.00
4:53 am 04:53 Clear 57 13.9 41 5 55 55 SE 8 13 30.18 1022 10 16 0.00 0.00
5:53 am 05:53 Clear 56 13.3 41 5 57 57 SE 9 15 30.18 1022 10 16 0.00 0.00
6:53 am 06:53 Clear 54 12.2 41 5 61 61 ESE 7 11 30.18 1022 10 16 0.00 0.00
7:53 am 07:53 Sunny 51 10.6 41 5 68 68 SE 6 9 30.19 1022 10 16 0.00 0.00
8:53 am 08:53 Sunny 56 13.3 42 5.6 60 60 SE 12 19 30.16 1021 10 16 0.00 0.00
9:53 am 09:53 Sunny 64 17.8 44 6.7 48 48 S 14 22 30.15 1021 10 16 0.00 0.00
10:53 am 10:53 Sunny 63 17.2 44 6.7 50 50 S 10 17 30.14 1021 10 16 0.00 0.00
11:53 am 11:53 Sunny 72 22.2 46 7.8 40 40 S 16 26 30.10 1019 10 16 0.00 0.00
12:53 pm 12:53 Sunny 75 23.9 46 7.8 36 36 S 15 24 30.07 1018 10 16 0.00 0.00
1:53 pm 13:53 Sunny 81 27.2 46 7.8 29 29 SSE 15 24 30.03 1017 10 16 0.00 0.00
2:53 pm 14:53 Sunny 83 28.3 47 8.3 28 28 S 16 26 30.00 1016 10 16 0.00 0.00
3:53 pm 15:53 Sunny 84 28.9 46 7.8 27 27 S 15 24 29.98 1015 10 16 0.00 0.00
4:53 pm 16:53 Sunny 85 29.4 47 8.3 27 27 SSE 16 26 29.96 1014 10 16 0.00 0.00
5:53 pm 17:53 Sunny 81 27.2 46 7.8 29 29 SSE 14 22 29.96 1015 10 16 0.00 0.00
6:53 pm 18:53 Sunny 78 25.6 47 8.3 33 33 SE 12 19 29.97 1015 10 16 0.00 0.00
7:53 pm 19:53 Clear 73 22.8 48 8.9 41 41 SSE 9 15 29.98 1015 10 16 0.00 0.00
8:53 pm 20:53 Clear 64 17.8 48 8.9 56 56 ESE 10 17 30.00 1016 10 16 0.00 0.00
9:53 pm 21:53 Clear 64 17.8 48 8.9 56 56 E 10 17 29.99 1016 10 16 0.00 0.00
10:53 pm 22:53 Clear 60 15.6 48 8.9 64 64 ESE 7 11 30.01 1016 10 16 0.00 0.00
11:53 pm 23:53 Clear 67 19.4 46 7.8 47 47 SE 13 20 29.98 1015 10 16 0.00 0.00

Powered by AerisWeather